20050717,000010,1567915,34.021317,-119.079078,17.516,33.523,0.777,1.010
20050717,000040,1567946,34.021228,-119.077368,17.562,33.484,0.760,0.980
20050717,000111,1567976,34.021137,-119.075675,17.531,33.503,0.771,0.999
20050717,000140,1568006,34.021033,-119.073965,17.499,33.515,0.755,0.967
20050717,000210,1568036,34.020950,-119.072247,17.512,33.492,0.760,0.975
20050717,000240,1568065,34.020848,-119.070530,17.570,33.453,0.738,0.934
20050717,000310,1568095,34.020752,-119.068817,17.688,33.407,0.782,1.012
20050717,000340,1568126,34.020653,-119.067107,17.910,33.342,0.820,1.083
20050717,000411,1568156,34.020550,-119.065405,17.916,33.448,0.907,1.249
20050717,000441,1568187,34.020440,-119.063707,17.927,33.474,0.820,1.082
20050717,000510,1568216,34.020352,-119.062003,17.863,33.526,0.809,1.060
20050717,000540,1568245,34.020248,-119.060308,17.798,33.545,0.804,1.050
20050717,000610,1568276,34.020132,-119.058605,17.788,33.508,0.787,1.019
20050717,000640,1568306,34.020022,-119.056905,17.732,33.530,0.804,1.049
20050717,000710,1568336,34.019912,-119.055218,17.728,33.505,0.793,1.028
20050717,000740,1568366,34.019795,-119.053513,17.730,33.494,0.755,0.958
20050717,000810,1568395,34.019693,-119.051802,17.747,33.488,0.749,0.948
20050717,000840,1568425,34.019585,-119.050097,17.730,33.501,0.760,0.966
20050717,000910,1568456,34.019472,-119.048383,17.851,33.419,0.744,0.935
20050717,000940,1568486,34.019372,-119.046675,17.852,33.476,0.782,1.002
20050717,001010,1568516,34.019262,-119.044962,17.846,33.485,0.755,0.952
20050717,001040,1568546,34.019157,-119.043247,17.918,33.446,0.787,1.011
20050717,001110,1568575,34.019045,-119.041532,17.995,33.438,0.787,1.012
20050717,001140,1568605,34.018940,-119.039812,18.020,33.467,0.809,1.052
20050717,001210,1568636,34.018833,-119.038090,18.040,33.465,0.815,1.060
20050717,001240,1568666,34.018737,-119.036380,18.100,33.450,0.831,1.086
20050717,001311,1568697,34.018650,-119.034672,18.171,33.428,0.864,1.144
20050717,001340,1568725,34.018543,-119.032960,18.097,33.529,0.891,1.193
20050717,001411,1568757,34.018443,-119.031252,17.911,33.610,0.825,1.071
20050717,001440,1568786,34.018345,-119.029540,17.860,33.558,0.793,1.012
20050717,001511,1568816,34.018243,-119.027765,17.901,33.486,0.815,1.051
20050717,001541,1568846,34.018150,-119.026043,17.882,33.506,0.809,1.041
20050717,001611,1568877,34.018055,-119.024328,17.893,33.479,0.842,1.100
20050717,001640,1568905,34.017953,-119.022672,17.972,33.450,0.847,1.109
20050717,001710,1568935,34.017867,-119.020950,18.039,33.444,0.874,1.160
20050717,001740,1568966,34.017773,-119.019242,18.121,33.410,0.891,1.189
20050717,001810,1568996,34.017660,-119.017540,18.153,33.459,0.901,1.208
20050717,001840,1569026,34.017560,-119.015838,17.964,33.589,0.891,1.187
20050717,001911,1569057,34.017455,-119.014107,17.844,33.595,0.853,1.118
20050717,001941,1569087,34.017343,-119.012307,17.773,33.560,0.804,1.029
20050717,002010,1569115,34.017257,-119.010633,17.797,33.498,0.793,1.009
20050717,002040,1569146,34.017143,-119.008893,17.891,33.434,0.825,1.068
20050717,002110,1569176,34.017063,-119.007150,17.963,33.440,0.842,1.098
20050717,002141,1569207,34.016970,-119.005353,17.983,33.467,0.885,1.179
20050717,002210,1569235,34.016885,-119.003662,18.028,33.454,0.907,1.220
20050717,002240,1569265,34.016798,-119.001938,18.082,33.447,0.907,1.219
20050717,002310,1569296,34.016690,-119.000242,18.139,33.440,0.912,1.228
20050717,002340,1569326,34.016602,-118.998548,18.136,33.486,0.896,1.197
20050717,002410,1569356,34.016505,-118.996843,17.884,33.635,0.880,1.166
20050717,002441,1569387,34.016393,-118.995068,17.770,33.578,0.864,1.135
20050717,002510,1569415,34.016300,-118.993405,17.842,33.470,0.825,1.062
20050717,002541,1569447,34.016198,-118.991630,17.977,33.405,0.825,1.058
20050717,002611,1569476,34.016098,-118.989910,18.108,33.384,0.831,1.065
20050717,002640,1569506,34.015998,-118.988246,18.138,33.438,0.842,1.081
20050717,002710,1569536,34.015883,-118.986535,18.121,33.475,0.842,1.078
20050717,002740,1569566,34.015770,-118.984825,18.121,33.481,0.831,1.056
20050717,002811,1569597,34.015648,-118.983053,18.152,33.465,0.836,1.065
20050717,002841,1569627,34.015552,-118.981341,18.128,33.488,0.836,1.064
20050717,002910,1569656,34.015430,-118.979688,18.156,33.465,0.831,1.054
20050717,002940,1569686,34.015333,-118.977978,18.157,33.482,0.955,1.286
20050717,003011,1569717,34.015213,-118.976205,18.100,33.515,0.831,1.056
20050717,003040,1569745,34.015100,-118.974540,18.039,33.525,0.809,1.019
20050717,003111,1569777,34.014980,-118.972756,18.011,33.507,0.787,0.981
20050717,003141,1569807,34.014867,-118.971088,18.091,33.440,0.760,0.933
20050717,003210,1569836,34.014767,-118.969368,18.170,33.425,0.771,0.950
20050717,003241,1569866,34.014648,-118.967581,18.192,33.455,0.787,0.977
20050717,003310,1569896,34.014548,-118.965898,18.150,33.501,0.787,0.975
20050717,003341,1569927,34.014430,-118.964153,18.122,33.497,0.777,0.954
20050717,003411,1569957,34.014325,-118.962421,18.199,33.447,0.749,0.906
20050717,003441,1569986,34.014213,-118.960635,18.241,33.459,0.782,0.962
20050717,003510,1570016,34.014102,-118.958955,18.223,33.492,0.787,0.973
20050717,003541,1570047,34.013990,-118.957166,18.191,33.496,0.755,0.919
20050717,003611,1570077,34.013890,-118.955430,18.139,33.526,0.744,0.902
20050717,003640,1570105,34.013798,-118.953743,18.208,33.442,0.749,0.914
20050717,003710,1570136,34.013688,-118.951995,18.237,33.472,0.749,0.917
20050717,003742,1570168,34.013573,-118.950200,18.247,33.453,0.744,0.909
20050717,003811,1570196,34.013465,-118.948463,18.397,33.388,0.738,0.900
20050717,003841,1570227,34.013355,-118.946738,18.313,33.517,0.793,0.995
20050717,003912,1570257,34.013250,-118.945000,18.287,33.500,0.744,0.909
20050717,003941,1570287,34.013138,-118.943256,18.270,33.505,0.744,0.910
20050717,004011,1570317,34.013030,-118.941518,18.230,33.510,0.744,0.911
20050717,004041,1570346,34.012923,-118.939775,18.356,33.412,0.755,0.929
20050717,004111,1570376,34.012802,-118.938030,18.336,33.479,0.760,0.937
20050717,004141,1570407,34.012693,-118.936290,18.331,33.481,0.787,0.986
20050717,004211,1570437,34.012575,-118.934548,18.425,33.426,0.777,0.970
20050717,004241,1570467,34.012462,-118.932810,18.455,33.455,0.798,1.009
20050717,004311,1570496,34.012343,-118.931071,18.462,33.470,0.809,1.028
20050717,004341,1570526,34.012230,-118.929338,18.523,33.449,0.853,1.106
20050717,004411,1570557,34.012112,-118.927590,18.568,33.452,0.842,1.085
20050717,004441,1570587,34.011993,-118.925853,18.594,33.460,1.423,2.294
20050717,004511,1570617,34.011877,-118.924120,18.663,33.439,0.874,1.144
20050717,004541,1570647,34.011768,-118.922391,18.730,33.432,0.885,1.162
20050717,004611,1570676,34.011648,-118.920655,18.735,33.469,0.912,1.211
20050717,004641,1570706,34.011532,-118.918920,18.736,33.478,0.912,1.210
20050717,004712,1570737,34.011418,-118.917178,18.751,33.477,0.955,1.292
20050717,004741,1570767,34.011307,-118.915435,18.799,33.455,0.966,1.313
20050717,004811,1570797,34.011193,-118.913701,18.831,33.462,0.966,1.311
20050717,004841,1570826,34.011083,-118.911966,18.848,33.472,0.977,1.329
20050717,004911,1570856,34.010968,-118.910233,18.836,33.485,0.961,1.296
20050717,004941,1570887,34.010862,-118.908503,18.883,33.463,0.972,1.314
20050717,005011,1570917,34.010775,-118.906785,18.863,33.489,0.988,1.343
20050717,005041,1570947,34.010683,-118.905058,18.863,33.487,1.009,1.382
20050717,005111,1570977,34.010592,-118.903331,18.870,33.485,1.015,1.391
20050717,005141,1571006,34.010498,-118.901600,18.879,33.486,1.026,1.411
20050717,005211,1571036,34.010412,-118.899873,18.850,33.507,1.085,1.530
20050717,005241,1571067,34.010327,-118.898136,18.804,33.521,1.139,1.642
20050717,005312,1571097,34.010232,-118.896400,18.700,33.563,1.176,1.723
20050717,005342,1571127,34.010133,-118.894596,18.690,33.518,1.284,1.953
20050717,005411,1571157,34.010042,-118.892915,18.766,33.452,1.316,2.023
20050717,005442,1571188,34.009950,-118.891115,18.830,33.448,1.321,2.038
20050717,005511,1571216,34.009857,-118.889431,18.818,33.495,1.498,2.446
20050717,005541,1571247,34.009767,-118.887685,18.731,33.540,1.684,2.905
20050717,005611,1571277,34.009660,-118.885935,18.764,33.477,1.960,3.626
20050717,005642,1571308,34.009567,-118.884188,18.784,33.487,2.081,3.963
20050717,005712,1571338,34.009443,-118.882441,18.788,33.485,2.319,4.637
20050717,005741,1571366,34.009327,-118.880700,18.769,33.507,2.487,5.123
20050717,005811,1571397,34.009208,-118.878948,18.778,33.492,2.634,5.546
20050717,005841,1571427,34.009088,-118.877195,18.763,33.494,2.906,6.365
20050717,005911,1571457,34.008962,-118.875436,18.768,33.491,3.188,7.248
20050717,005941,1571487,34.008847,-118.873683,18.801,33.476,3.240,7.388
20050717,010011,1571516,34.008723,-118.871921,18.765,33.502,3.219,7.313
20050717,010041,1571546,34.008622,-118.870161,18.775,33.499,3.183,7.208
20050717,010111,1571577,34.008500,-118.868403,18.804,33.469,3.407,7.980
20050717,010141,1571607,34.008395,-118.866638,18.910,33.419,3.651,8.835
20050717,010211,1571637,34.008280,-118.864868,19.004,33.420,3.485,8.238
20050717,010241,1571667,34.008215,-118.863095,19.062,33.439,3.682,8.929
20050717,010311,1571696,34.008163,-118.861316,19.139,33.433,4.076,10.383
20050717,010341,1571726,34.008097,-118.859545,19.186,33.445,4.273,11.140
20050717,010411,1571757,34.008032,-118.857780,19.169,33.491,4.009,10.146
20050717,010441,1571787,34.007963,-118.856011,19.014,33.579,4.071,10.373
20050717,010512,1571818,34.007907,-118.854248,18.859,33.610,4.097,10.450
20050717,010541,1571846,34.007912,-118.852486,18.897,33.500,4.164,10.680
20050717,010611,1571876,34.007897,-118.850728,18.915,33.489,4.407,11.588
20050717,010642,1571908,34.007882,-118.848973,18.906,33.495,4.247,10.961
20050717,010711,1571937,34.007885,-118.847226,18.937,33.470,3.729,9.055
20050717,010742,1571967,34.007935,-118.845423,19.014,33.440,3.422,7.991
20050717,010812,1571998,34.008055,-118.843741,19.003,33.486,3.396,7.904
20050717,010841,1572026,34.008232,-118.842008,19.139,33.404,3.276,7.487
20050717,010911,1572056,34.008423,-118.840271,19.291,33.384,3.078,6.819
20050717,010942,1572087,34.008635,-118.838491,19.461,33.373,3.344,7.695
20050717,011011,1572117,34.008825,-118.837106,19.513,33.426,3.266,7.432
20050717,011041,1572147,34.009073,-118.835910,19.487,33.494,3.230,7.296
20050717,011112,1572178,34.009117,-118.835070,19.516,33.470,3.016,6.588
20050717,011141,1572206,34.008960,-118.834550,19.527,33.486,2.802,5.901
20050717,011211,1572237,34.008745,-118.834278,19.482,33.515,2.550,5.136
20050717,011242,1572267,34.008538,-118.834153,19.434,33.483,2.050,3.740
20050717,011311,1572297,34.008360,-118.834100,19.390,33.379,2.044,3.734
20050717,011342,1572328,34.008202,-118.834063,19.364,33.304,2.155,4.040
20050717,011411,1572356,34.008042,-118.834078,19.341,33.401,2.171,4.084
20050717,011441,1572386,34.007892,-118.834121,19.322,33.455,2.050,3.752
20050717,011511,1572417,34.007768,-118.834185,19.305,33.483,2.166,4.060
20050717,011541,1572447,34.007647,-118.834233,19.295,33.488,2.118,3.935
20050717,011612,1572477,34.007555,-118.834291,19.287,33.492,2.182,4.111
20050717,011641,1572507,34.007455,-118.834333,19.274,33.496,2.203,4.163
20050717,011712,1572538,34.007363,-118.834385,19.271,33.492,2.155,4.021
20050717,011741,1572566,34.007287,-118.834423,19.275,33.487,2.055,3.752
20050717,011811,1572597,34.007202,-118.834460,19.284,33.485,2.150,4.022
20050717,011841,1572627,34.007115,-118.834481,19.285,33.488,2.044,3.751
20050717,011911,1572657,34.007033,-118.834506,19.284,33.490,2.081,3.848
20050717,011941,1572686,34.006937,-118.834521,19.293,33.486,2.060,3.787
20050717,012012,1572718,34.006837,-118.834530,19.295,33.490,2.002,3.631
20050717,012042,1572748,34.006693,-118.834651,19.299,33.491,2.007,3.648
20050717,012112,1572777,34.006647,-118.834930,19.304,33.488,1.933,3.457
20050717,012141,1572807,34.006823,-118.835151,19.307,33.491,1.949,3.501
20050717,012212,1572838,34.007120,-118.835075,19.307,33.492,1.843,3.237
20050717,012242,1572868,34.007252,-118.834868,19.315,33.489,1.902,3.397
20050717,012312,1572898,34.007385,-118.834443,19.324,33.488,1.827,3.228
20050717,012341,1572927,34.007722,-118.833921,19.325,33.493,1.949,3.591
20050717,012412,1572957,34.008130,-118.833280,19.312,33.501,1.949,3.603
20050717,012442,1572988,34.008642,-118.832733,19.295,33.505,1.992,3.794
20050717,012512,1573018,34.009205,-118.832208,19.236,33.537,2.050,3.967
20050717,012542,1573048,34.009740,-118.831620,19.252,33.490,2.182,4.341
20050717,012611,1573076,34.010305,-118.831026,19.325,33.450,2.197,4.259
20050717,012642,1573107,34.010825,-118.830518,19.387,33.447,2.166,4.125
20050717,012712,1573137,34.011213,-118.830215,19.436,33.451,2.276,4.407
20050717,012742,1573168,34.011527,-118.830035,19.482,33.452,2.297,4.442
20050717,012811,1573196,34.011777,-118.829933,19.530,33.456,2.271,4.350
20050717,012842,1573228,34.012015,-118.829890,19.560,33.463,2.355,4.575
20050717,012912,1573258,34.012207,-118.829921,19.591,33.467,2.377,4.631
20050717,012942,1573287,34.012328,-118.830050,19.620,33.470,2.297,4.409
20050717,013012,1573317,34.012347,-118.830173,19.621,33.487,2.329,4.499
20050717,013042,1573348,34.012320,-118.830250,19.629,33.486,2.408,4.721
20050717,013112,1573378,34.012260,-118.830298,19.644,33.483,2.492,4.964
20050717,013142,1573408,34.012173,-118.830323,19.642,33.493,2.566,5.186
20050717,013212,1573437,34.012085,-118.830331,19.642,33.494,2.397,4.706
20050717,013242,1573467,34.011992,-118.830326,19.659,33.485,2.482,4.956
20050717,013312,1573498,34.011890,-118.830321,19.687,33.477,2.276,4.378
20050717,013342,1573528,34.011785,-118.830306,19.686,33.493,2.371,4.653
20050717,013412,1573558,34.011697,-118.830296,19.679,33.499,2.334,4.559
20050717,013442,1573588,34.011617,-118.830286,19.677,33.496,2.382,4.710
20050717,013512,1573617,34.011537,-118.830266,19.679,33.494,2.445,4.922
20050717,013542,1573647,34.011462,-118.830251,19.689,33.490,2.287,4.494
20050717,013612,1573678,34.011395,-118.830238,19.697,33.491,2.377,4.770
20050717,013642,1573708,34.011325,-118.830215,19.715,33.485,2.297,4.551
20050717,013712,1573738,34.011250,-118.830186,19.723,33.489,2.282,4.502
20050717,013742,1573768,34.011188,-118.830163,19.718,33.498,2.229,4.325
20050717,013812,1573797,34.011122,-118.830125,19.721,33.493,2.361,4.667
20050717,013842,1573827,34.011048,-118.830086,19.715,33.501,2.208,4.216
20050717,013912,1573858,34.010980,-118.830045,19.704,33.503,2.303,4.475
20050717,013942,1573888,34.010898,-118.830001,19.705,33.499,2.234,4.284
20050717,014013,1573919,34.010828,-118.829958,19.704,33.499,2.208,4.206
20050717,014042,1573947,34.010755,-118.829905,19.697,33.502,2.203,4.177
20050717,014112,1573977,34.010682,-118.829846,19.681,33.508,2.261,4.323
20050717,014142,1574008,34.010608,-118.829786,19.667,33.507,2.145,4.002
20050717,014212,1574038,34.010537,-118.829721,19.668,33.499,2.271,4.358
20050717,014242,1574068,34.010475,-118.829658,19.670,33.499,2.229,4.245
20050717,014313,1574099,34.010405,-118.829600,19.658,33.501,2.182,4.105
20050717,014343,1574129,34.010342,-118.829521,19.642,33.508,2.150,3.995
20050717,014412,1574157,34.010277,-118.829458,19.619,33.516,2.271,4.299
20050717,014442,1574188,34.010213,-118.829385,19.596,33.513,2.171,4.016
20050717,014512,1574218,34.010152,-118.829321,19.595,33.502,2.129,3.910
20050717,014542,1574248,34.010093,-118.829250,19.566,33.515,2.166,4.021
20050717,014612,1574278,34.010035,-118.829186,19.538,33.517,2.171,4.039
20050717,014642,1574307,34.009970,-118.829116,19.511,33.516,2.234,4.204
20050717,014712,1574338,34.009895,-118.829053,19.491,33.511,2.271,4.293
20050717,014742,1574368,34.009832,-118.829003,19.481,33.506,2.166,3.994
20050717,014812,1574398,34.009747,-118.828953,19.465,33.507,2.139,3.913
20050717,014842,1574428,34.009667,-118.828905,19.466,33.497,2.197,4.060
20050717,014912,1574457,34.009592,-118.828848,19.468,33.494,2.229,4.145
20050717,014943,1574489,34.009518,-118.828793,19.469,33.495,2.303,4.363
20050717,015012,1574518,34.009440,-118.828738,19.499,33.476,2.287,4.347
20050717,015042,1574548,34.009345,-118.828723,19.538,33.463,2.276,4.346
20050717,015112,1574578,34.009147,-118.828760,19.555,33.475,2.213,4.202
20050717,015142,1574608,34.008952,-118.828906,19.557,33.488,2.297,4.468
20050717,015213,1574639,34.008778,-118.829118,19.560,33.490,2.282,4.448
20050717,015242,1574667,34.008607,-118.829375,19.574,33.485,2.108,3.957
20050717,015312,1574698,34.008435,-118.829660,19.577,33.493,2.245,4.319
20050717,015342,1574728,34.008287,-118.829851,19.566,33.503,2.129,3.963
20050717,015412,1574758,34.008173,-118.829978,19.541,33.512,2.161,4.012
20050717,015442,1574787,34.008045,-118.830138,19.514,33.514,2.255,4.239
20050717,015512,1574817,34.007922,-118.830298,19.503,33.485,2.166,3.982
20050717,015542,1574848,34.007808,-118.830435,19.492,33.500,2.129,3.866
20050717,015612,1574878,34.007712,-118.830563,19.488,33.500,2.039,3.622
20050717,015642,1574908,34.007613,-118.830666,19.480,33.501,2.081,3.725
20050717,015712,1574938,34.007525,-118.830768,19.471,33.501,2.060,3.660
20050717,015742,1574967,34.007433,-118.830850,19.469,33.500,2.050,3.613
20050717,015813,1574999,34.007348,-118.830925,19.462,33.500,2.066,3.641
20050717,015842,1575028,34.007253,-118.830983,19.452,33.502,2.076,3.663
20050717,015912,1575058,34.007173,-118.831033,19.444,33.500,2.071,3.650
20050717,015942,1575088,34.007090,-118.831076,19.433,33.502,2.050,3.601
20050717,020012,1575118,34.007008,-118.831113,19.424,33.501,2.002,3.483
20050717,020042,1575147,34.006935,-118.831143,19.419,33.500,1.976,3.415
20050717,020112,1575177,34.006867,-118.831171,19.414,33.501,2.002,3.484
20050717,020143,1575208,34.006717,-118.831390,19.401,33.497,2.044,3.590
20050717,020212,1575238,34.006458,-118.831803,19.391,33.503,2.029,3.550
20050717,020243,1575269,34.006160,-118.832345,19.385,33.500,2.034,3.567
20050717,020312,1575297,34.005833,-118.832926,19.377,33.500,1.923,3.290
20050717,020343,1575329,34.005498,-118.833555,19.360,33.506,1.997,3.474
20050717,020412,1575358,34.005148,-118.834198,19.330,33.512,1.997,3.463
20050717,020442,1575388,34.004792,-118.834853,19.305,33.513,2.050,3.586
20050717,020512,1575418,34.004435,-118.835500,19.280,33.516,2.018,3.518
20050717,020542,1575448,34.004068,-118.836151,19.243,33.522,2.013,3.514
20050717,020612,1575477,34.003690,-118.836786,19.171,33.547,2.108,3.751
20050717,020643,1575509,34.003170,-118.837190,19.155,33.512,2.039,3.555
20050717,020713,1575539,34.002495,-118.837230,19.212,33.467,1.912,3.224
20050717,020742,1575568,34.001655,-118.837178,19.295,33.440,1.917,3.230
20050717,020812,1575598,34.000682,-118.837175,19.328,33.460,1.795,2.933
20050717,020842,1575628,33.999603,-118.837163,19.313,33.493,1.912,3.206
20050717,020912,1575657,33.998491,-118.837146,19.289,33.507,1.912,3.207
20050717,020942,1575688,33.997361,-118.837146,19.292,33.498,1.907,3.196
20050717,021013,1575718,33.996231,-118.837148,19.317,33.480,1.827,3.001
20050717,021042,1575748,33.995086,-118.837138,19.301,33.504,1.742,2.793
20050717,021112,1575778,33.993878,-118.837120,19.255,33.522,1.588,2.439
20050717,021142,1575807,33.992636,-118.837111,19.198,33.539,1.535,2.319
20050717,021212,1575837,33.991390,-118.837110,19.169,33.525,1.471,2.180
20050717,021242,1575868,33.990115,-118.837098,19.126,33.532,1.310,1.845
20050717,021312,1575898,33.988801,-118.837106,19.050,33.559,1.241,1.704
20050717,021343,1575928,33.987430,-118.837103,18.980,33.549,1.182,1.588
20050717,021412,1575958,33.986011,-118.837110,18.875,33.579,1.166,1.557
20050717,021442,1575987,33.984571,-118.837106,18.765,33.566,1.074,1.385
20050717,021512,1576017,33.983116,-118.837096,18.785,33.506,1.085,1.403
20050717,021543,1576048,33.981656,-118.837083,18.766,33.515,0.966,1.189
20050717,021612,1576078,33.980188,-118.837086,18.758,33.504,0.917,1.106
20050717,021642,1576108,33.978720,-118.837078,18.753,33.502,0.923,1.116
20050717,021712,1576137,33.977251,-118.837083,18.723,33.517,0.858,1.006
20050717,021742,1576167,33.975780,-118.837083,18.641,33.546,0.836,0.969
20050717,021812,1576198,33.974301,-118.837081,18.597,33.529,0.836,0.966
20050717,021842,1576228,33.972818,-118.837076,18.602,33.500,0.836,0.965
20050717,021913,1576258,33.971333,-118.837078,18.585,33.507,0.809,0.921
20050717,021942,1576288,33.969843,-118.837075,18.565,33.502,0.777,0.869
20050717,022013,1576319,33.968350,-118.837078,18.536,33.512,0.733,0.800
20050717,022042,1576347,33.966851,-118.837060,18.516,33.507,0.804,0.910
20050717,022112,1576378,33.965361,-118.837048,18.529,33.485,0.733,0.798
20050717,022142,1576408,33.963866,-118.837033,18.540,33.482,0.777,0.865
20050717,022212,1576438,33.962373,-118.837013,18.575,33.461,0.738,0.806
20050717,022243,1576469,33.960886,-118.836995,18.640,33.440,0.728,0.791
20050717,022312,1576497,33.959398,-118.836971,18.733,33.419,0.733,0.800
20050717,022342,1576527,33.957910,-118.836945,18.783,33.434,0.733,0.801
20050717,022413,1576558,33.956421,-118.836905,18.814,33.448,0.733,0.802
20050717,022442,1576588,33.954930,-118.836876,18.825,33.462,0.738,0.809
20050717,022513,1576619,33.953391,-118.836850,18.835,33.465,0.711,0.766
20050717,022542,1576647,33.951948,-118.836825,18.862,33.452,0.711,0.764
20050717,022613,1576679,33.950458,-118.836805,18.937,33.427,0.689,0.730
20050717,022642,1576708,33.948968,-118.836778,18.962,33.444,0.684,0.721
20050717,022713,1576738,33.947488,-118.836758,18.957,33.462,0.695,0.737
20050717,022742,1576768,33.946008,-118.836726,18.990,33.446,0.689,0.729
20050717,022812,1576798,33.944538,-118.836688,19.117,33.391,0.700,0.745
20050717,022842,1576827,33.943065,-118.836656,19.288,33.345,0.733,0.795
20050717,022913,1576859,33.941590,-118.836621,19.488,33.320,0.744,0.811
20050717,022942,1576888,33.940120,-118.836596,19.598,33.357,0.793,0.888
20050717,023012,1576918,33.938646,-118.836568,19.664,33.403,0.831,0.949
20050717,023043,1576949,33.937125,-118.836548,19.734,33.407,0.836,0.957
20050717,023112,1576978,33.935703,-118.836511,19.723,33.455,0.836,0.956
20050717,023143,1577009,33.934230,-118.836478,19.747,33.448,0.831,0.947
20050717,023212,1577038,33.932761,-118.836453,19.709,33.484,0.858,0.991
20050717,023243,1577068,33.931248,-118.836421,19.611,33.530,0.831,0.946
20050717,023312,1577098,33.929836,-118.836393,19.544,33.519,0.820,0.928
20050717,023343,1577129,33.928363,-118.836371,19.504,33.500,0.820,0.928
20050717,023412,1577157,33.926893,-118.836341,19.477,33.488,0.842,0.962
20050717,023442,1577187,33.925428,-118.836328,19.477,33.471,0.820,0.927
20050717,023512,1577218,33.923968,-118.836298,19.497,33.452,0.820,0.927
20050717,023543,1577248,33.922453,-118.836271,19.517,33.448,0.809,0.910
20050717,023612,1577278,33.921028,-118.836248,19.528,33.452,0.847,0.971
20050717,023642,1577308,33.919561,-118.836226,19.526,33.459,0.809,0.910
20050717,023712,1577337,33.918091,-118.836203,19.591,33.422,0.836,0.953
20050717,023743,1577369,33.916573,-118.836203,19.633,33.434,0.793,0.884
20050717,023812,1577398,33.915146,-118.836180,19.643,33.452,0.787,0.875
20050717,023842,1577428,33.913673,-118.836163,19.619,33.479,0.798,0.893
20050717,023912,1577458,33.912206,-118.836148,19.583,33.487,0.738,0.799
20050717,023943,1577489,33.910741,-118.836121,19.574,33.481,0.787,0.875
20050717,024012,1577517,33.909285,-118.836105,19.538,33.494,0.771,0.850
20050717,024042,1577548,33.907831,-118.836095,19.562,33.458,0.722,0.775
20050717,024113,1577578,33.906335,-118.836110,19.639,33.434,0.782,0.867
20050717,024142,1577608,33.904935,-118.836106,19.654,33.459,0.771,0.850
20050717,024212,1577638,33.903478,-118.836106,19.649,33.480,0.744,0.807
20050717,024243,1577669,33.902006,-118.835960,19.647,33.482,0.733,0.790
20050717,024312,1577697,33.900748,-118.835340,19.670,33.482,0.717,0.764
20050717,024343,1577729,33.899345,-118.834721,19.680,33.492,0.673,0.699